Погода в Идрице

Россия / Псковская область     56°19′55″N   28°53′13″E
темп.,
°C
ветер,
м/с
пор.,
м/с
влажн.,
%
обл.,
%
осадки,
мм/ч
давл.,
гПа
погр.,
м
18 сентября, сб
сб1800:00+5в41370100 0.0 1020566
03:00+4в4137394 0.0 1020566
06:00+4в51475100 0.0 1020701
09:00+6в61665100 0.0 1019796
12:00+10в71348100 0.0 10181141
15:00+12в71244100 0.0 10181334
18:00+10всв71248100 0.0 10171230
21:00+9всв61354100 0.0 10171016
19 сентября, вс
вс1900:00+8всв61358100 0.0 10171014
03:00+7всв61366100 0.0 1016942
06:00+6всв71469100 0.0 1016846
09:00+5всв61482100 0.6 1016857
12:00+5всв61490100 1.3 1017918
15:00+5всв61390100 2.3 10171088
18:00+5всв61397100 1.4 10171060
21:00+4всв61397100 5.6 10171017
20 сентября, пн
пн2000:00+3св61297100 1.1 1017962
03:00+3св51297100 2.5 1017922
06:00+3св51297100 0.6 1017885
09:00+3св51397100 2.3 1017872
12:00+3всв51297100 0.3 1018804
15:00+4всв51297100 0.4 1018821
18:00+4всв51197100 0.2 1018954
21:00+4св41197100 0.3 1019960
21 сентября, вт
вт2100:00+4св4118991 0.0 1019720
03:00+3ссв41086100 0.0 1018557
06:00+3ссв4985100 0.0 1018587
09:00+3с4990100 0.0 1018510
12:00+4с4986100 0.0 1018655
15:00+4с4987100 0.0 1019708
18:00+4с4989100 0.0 1019848
21:00+4с4997100 0.3 1020759
22 сентября, ср
ср2200:00+4ссз3897100 0.0 1020721
03:00+5ссз4992100 0.0 1019525
06:00+3ссз4109166 0.0 1019427
09:00+4ссз4118292 0.0 1019473
12:00+8с586196 0.0 10191121
15:00+9с4761100 0.0 10181206
18:00+9с386691 0.0 10171079
21:00+6сз397668 0.0 1017364